Regional Weather Roundup
Issued by NWS Nashville, TN

Home | Current Version | Previous Version | Text Only | Print | Product List | Glossary On
Versions: 1 2 3 4 5 6 7 8 9 10 11 12 13 14 15 16 17 18 19 20 21 22 23 24 25 26 27
000
ASUS44 KOHX 300610
RWROHX
MIDDLE TENNESSEE HOURLY WEATHER ROUNDUP
NATIONAL WEATHER SERVICE NASHVILLE TN
100 AM CDT SAT APR 30 2016

NOTE: "FAIR" INDICATES FEW OR NO CLOUDS BELOW 12,000 FEET WITH
NO SIGNIFICANT WEATHER AND/OR OBSTRUCTIONS TO VISIBILITY.

* THESE REPORTS ARE NOT UNDER NWS QUALITY CONTROL AND MAY NOT
  REPORT WEATHER SUCH AS PRECIPITATION AND FOG.


TNZ005>011-023>034-057-059-062>066-078-080-300700
...NORTHERN MIDDLE TENNESSEE...

CITY           SKY/WX    TMP DP  RH WIND       PRES   REMARKS
CLARKSVILLE    CLOUDY    62  58  86 E3        29.92F
CROSSVILLE     PTCLDY    68  53  58 CALM      29.99F
NASHVILLE      MOCLDY    65  60  84 CALM      29.92F
SMYRNA         CLOUDY    63  61  93 CALM      29.93F
SPARTA         PTCLDY    61  57  88 CALM      29.94F
$$
TNZ056-058-060-061-075>077-079-093>097-300700
...SOUTHERN MIDDLE TENNESSEE...

CITY           SKY/WX    TMP DP  RH WIND       PRES   REMARKS
COLUMBIA         N/A    N/A N/A N/A CALM      29.90S
FAYETTEVILLE   PTCLDY    63  59  88 CALM      29.91F
MCMINNVILLE    PTCLDY    61  61 100 NE5       29.94F
SHELBYVILLE    CLEAR     63  57  82 NE3       29.92F
TULLAHOMA      CLEAR     61  59  94 CALM      29.93F
WINCHESTER     CLEAR     66  54  63 SE6       29.92F
$$


...KEY TO REMARKS...
VSB - VISIBILITY IN MILES
WCI - WIND CHILL INDEX
HX  - HEAT INDEX





USA.gov is the U.S. government's official web portal to all federal, state and local government web resources and services.